Zurück zum Katalog

FALCON 9 R/B

AktivHEO
NORAD 47241·ROCKET BODY·🇺🇸 United States

Gestartet Dec 13, 2020 von Cape Canaveral Space Force Station

Loading…

Nächste Überflüge (nächste 24 Stunden)

TLE

AktuellSource: Space-Track

Epoche: Sep 14, 2026, 10:02 UTC

1 47241U 20096B   26257.41862600  .00012943  00000-0  81450-3 0  9994
2 47241  26.9661 299.5872 4394707 208.5578 118.0849  6.72850148112377

Verfolge FALCON 9 R/B in Echtzeit mit AllMySat

Download on the App Store